ODESSA/TSENTRALNY current weather conditions

sailwx.info

Wind from 010 at 3 knots

Air temperature 1.0° C
Visibility: greater than 5.4 NM
Dewpoint -4.0° C

Last reported at 2020-Jan-26 07:00 UTC.
Time now 2020-Jan-26 07:51 UTC

Location: N 46°25' E 030°41'.
View on Google Maps.

See reports from other nearby stations

  
Tides and Currents Weather Stations Pressure Air Temp Water Temp Dewpoint Dewpoint Depression Visibility Wind Speed Wind Dir Waves Ship Positions
date/time (UTC)wind fromknots sea level pressurealtimeterstation pressurevisibilityair tempwater tempwave heightnotes
2020-Jan-26 07:00 010 3 5.4 1.0
2020-Jan-26 06:30 360 1 5.4-2.0
2020-Jan-26 06:00 360 3 5.4-3.0
2020-Jan-26 05:30 340 3 5.4-2.0
2020-Jan-26 05:00 360 1 5.4-3.0
2020-Jan-26 04:30 360 3 5.4-1.0
2020-Jan-26 04:00 360 5 5.4-1.0
2020-Jan-26 03:30 350 5 5.4-2.0
2020-Jan-26 03:00 360 3 5.4-2.0
2020-Jan-26 02:30 340 9 5.4-2.0
2020-Jan-26 02:00 5.4-2.0
2020-Jan-26 01:30 350 3 5.4-2.0
2020-Jan-26 01:00 300 3 5.4-2.0
2020-Jan-26 00:30 5.4-2.0
2020-Jan-26 00:00 5.4-2.0
2020-Jan-25 23:30 5.4-2.0
2020-Jan-25 23:00 240 3 5.4-2.0
2020-Jan-25 22:30 310 1 5.4-1.0
2020-Jan-25 22:00 280 7 5.4-0.0
2020-Jan-25 21:30 310 5 5.4 1.0
2020-Jan-25 21:00 5.4-1.0
2020-Jan-25 20:30 5.4-0.0
2020-Jan-25 20:00 280 3 5.4-2.0
2020-Jan-25 19:30 300 5 5.4 1.0
2020-Jan-25 19:00 260 3 5.4 1.0
2020-Jan-25 18:30 260 7 5.4 1.0
2020-Jan-25 18:00 250 9 5.4 1.0
2020-Jan-25 17:30 240 7 5.4 2.0
2020-Jan-25 17:00 240 3 5.4 2.0
2020-Jan-25 16:30 230 7 5.4 2.0
2020-Jan-25 16:00 260 5 5.4 3.0
2020-Jan-25 15:30 290 5 5.4 4.0
2020-Jan-25 15:00 290 5 5.4 5.0
2020-Jan-25 14:30 300 9 5.4 7.0
2020-Jan-25 14:00 290 13 5.4 8.0
2020-Jan-25 13:30 300 15 5.4 8.0
2020-Jan-25 13:00 290 13 5.4 9.0
2020-Jan-25 12:30 280 13 5.4 8.0
2020-Jan-25 12:00 290 13 5.4 9.0
2020-Jan-25 11:30 300 11 5.4 9.0
2020-Jan-25 11:00 300 11 5.4 8.0
2020-Jan-25 10:30 320 11 5.4 8.0
2020-Jan-25 10:00 330 9 5.4 7.0
2020-Jan-25 09:30 350 7 5.4 6.0
2020-Jan-25 09:00 330 9 5.4 5.0
2020-Jan-25 08:30 320 7 5.4 3.0
2020-Jan-25 08:00 320 5 5.4 2.0
2020-Jan-25 07:30 320 7 5.4-0.0
2020-Jan-25 07:00 320 3 5.4-2.0
2020-Jan-25 06:30 310 3 5.4-4.0
2020-Jan-25 06:00 290 5 5.4-4.0
2020-Jan-25 05:30 300 3 5.4-4.0
2020-Jan-25 05:00 5.4-4.0
2020-Jan-25 04:30 260 1 5.4-4.0
2020-Jan-25 04:00 250 1 5.4-3.0
2020-Jan-25 03:30 230 3 5.4-3.0
2020-Jan-25 03:00 220 3 5.4-3.0
2020-Jan-25 02:30 230 5 5.4-4.0
2020-Jan-25 02:00 220 3 5.4-2.0
2020-Jan-25 01:30 210 5 5.4-2.0
2020-Jan-25 01:00 190 5 5.4-2.0
2020-Jan-25 00:30 210 5 5.4-2.0
2020-Jan-25 00:00 5.4-1.0
2020-Jan-24 23:30 220 5 5.4-1.0
2020-Jan-24 23:00 220 1 5.4-1.0
2020-Jan-24 22:30 210 5 5.4-1.0
2020-Jan-24 22:00 230 11 5.4-1.0
2020-Jan-24 21:30 220 9 5.4-1.0
2020-Jan-24 21:00 210 7 5.4-1.0
2020-Jan-24 20:30 210 7 5.4-1.0
2020-Jan-24 20:00 210 7 5.4-1.0
2020-Jan-24 19:30 210 5 5.4-1.0
2020-Jan-24 19:00 210 7 5.4-1.0
2020-Jan-24 18:30 220 7 5.4-1.0
2020-Jan-24 18:00 230 7 5.4 1.0
2020-Jan-24 17:30 240 7 5.4 1.0
2020-Jan-24 17:00 220 5 5.4 1.0
2020-Jan-24 16:30 220 7 5.4 2.0
2020-Jan-24 16:00 220 7 5.4 3.0
2020-Jan-24 15:30 230 7 5.4 3.0
2020-Jan-24 15:00 240 9 5.4 4.0
2020-Jan-24 14:30 250 13 5.4 5.0
2020-Jan-24 14:00 250 15 5.4 6.0
2020-Jan-24 13:30 240 13 5.4 6.0
2020-Jan-24 13:00 250 13 5.4 6.0
2020-Jan-24 12:30 250 13 5.4 6.0
2020-Jan-24 12:00 250 13 5.4 6.0
2020-Jan-24 11:30 250 13 5.4 6.0
2020-Jan-24 11:00 260 13 gusting 23 5.4 5.0
2020-Jan-24 10:30 260 13 5.4 5.0
2020-Jan-24 10:00 250 9 5.4 5.0
2020-Jan-24 09:30 260 9 5.4 4.0
2020-Jan-24 09:00 270 9 5.4 3.0
2020-Jan-24 08:30 260 7 5.4 3.0
2020-Jan-24 08:00 270 7 5.4 1.0
2020-Jan-24 07:30 5.4-0.0
2020-Jan-24 07:00 250 7 5.4-2.0